Madison, MN

8:49 PM CST on December 08, 2019 (GMT -0600)
Madison-Lac Qui Parle County

Weather History for KDXX - October, 2019

Change the Weather History Date:

Wednesday, October 16, 2019

  Actual Average (KAQP) Record (KAQP)
Temperature  
Mean Temperature 42 °F -  
Max Temperature 48 °F 55 °F 75 °F (2012)
Min Temperature 37 °F 34 °F 24 °F (2003)
Degree Days  
Heating Degree Days 22    
Moisture  
Dew Point 35 °F    
Average Humidity 73    
Maximum Humidity 93    
Minimum Humidity 58    
Precipitation  
Precipitation 0.00 in - - ()
Sea Level Pressure  
Sea Level Pressure 30.12 in    
Wind  
Wind Speed 8 mph (WNW)    
Max Wind Speed 16 mph    
Max Gust Speed 24 mph    
Visibility 10 miles    
Events      
Averages and records for this station are not official NWS values.
T = Trace of Precipitation, MM = Missing Value Source: NWS Daily Summary

Daily Weather History Graph

Daily Weather History Graph

Search for Another Location

Airport or City:

Astronomy

Oct. 16, 2019 Rise Set
Actual Time 7:41 AM CDT 6:38 PM CDT
Civil Twilight 7:11 AM CDT 7:07 PM CDT
Nautical Twilight 6:37 AM CDT 7:41 PM CDT
Astronomical Twilight 6:03 AM CDT 8:15 PM CDT
Moon 8:26 PM CDT (10/16) 10:18 AM CDT (10/16)
Length of Visible Light 11h 56m
Length of Day
10h 56m
Waning Gibbous, 92% of the Moon is Illuminated
Oct 16
Waning Gibbous
Oct 21
Last Quarter
Oct 27
New
Nov 4
First Quarter
Nov 12
Full

Hourly Weather History & Observations

Time (CDT) Temp. Windchill Dew Point Humidity Pressure Visibility Wind Dir Wind Speed Gust Speed Precip Events Conditions
12:15 AM 42.8 °F 35.8 °F 35.6 °F 76% 30.17 in 10.0 mi NNW 13.8 mph 24.2 mph N/A   Overcast
12:16 AM 42.8 °F 36.2 °F 35.6 °F 76% 30.17 in 10.0 mi NNW 12.7 mph 24.2 mph N/A   Overcast
12:35 AM 42.8 °F 35.1 °F 35.6 °F 76% 30.17 in 10.0 mi NNW 16.1 mph 19.6 mph N/A   Overcast
12:36 AM 42.8 °F 35.1 °F 35.6 °F 76% 30.17 in 10.0 mi NNW 16.1 mph 19.6 mph N/A   Overcast
12:59 AM 42.8 °F 36.6 °F 35.6 °F 76% 30.17 in 10.0 mi NW 11.5 mph 19.6 mph N/A   Overcast
1:16 AM 42.8 °F 37.5 °F 35.6 °F 76% 30.17 in 10.0 mi NNW 9.2 mph - N/A   Overcast
1:36 AM 41.0 °F 34.3 °F 35.6 °F 81% 30.17 in 10.0 mi NNW 11.5 mph - N/A   Overcast
1:55 AM 42.8 °F 35.8 °F 33.8 °F 70% 30.17 in 10.0 mi NNW 13.8 mph 18.4 mph N/A   Overcast
2:15 AM 42.8 °F 36.6 °F 33.8 °F 70% 30.17 in 10.0 mi NNW 11.5 mph - N/A   Overcast
2:19 AM 42.8 °F 38.0 °F 35.6 °F 76% 30.17 in 10.0 mi NNW 8.1 mph - N/A   Overcast
2:38 AM 42.8 °F 36.2 °F 33.8 °F 70% 30.18 in 10.0 mi NW 12.7 mph 19.6 mph N/A   Overcast
2:55 AM 42.8 °F 35.8 °F 33.8 °F 70% 30.18 in 10.0 mi NNW 13.8 mph - N/A   Overcast
3:15 AM 42.8 °F 37.5 °F 33.8 °F 70% 30.18 in 10.0 mi NNW 9.2 mph - N/A   Overcast
3:16 AM 42.8 °F 38.0 °F 35.6 °F 76% 30.18 in 10.0 mi NNW 8.1 mph - N/A   Overcast
3:35 AM 42.8 °F 36.2 °F 35.6 °F 76% 30.18 in 10.0 mi NNW 12.7 mph - N/A   Overcast
3:58 AM 42.8 °F 35.4 °F 33.8 °F 70% 30.18 in 10.0 mi NNW 15.0 mph - N/A   Overcast
4:16 AM 41.0 °F 34.7 °F 33.8 °F 76% 30.18 in 10.0 mi NNW 10.4 mph - N/A   Overcast
4:35 AM 41.0 °F 33.5 °F 33.8 °F 76% 30.17 in 10.0 mi NNW 13.8 mph 18.4 mph N/A   Overcast
4:36 AM 41.0 °F 34.3 °F 33.8 °F 76% 30.17 in 10.0 mi NNW 11.5 mph - N/A   Overcast
4:55 AM 41.0 °F 36.4 °F 33.8 °F 76% 30.17 in 10.0 mi NW 6.9 mph - N/A   Overcast
4:56 AM 41.0 °F 36.4 °F 33.8 °F 76% 30.17 in 10.0 mi NW 6.9 mph - N/A   Overcast
5:15 AM 41.0 °F 36.4 °F 33.8 °F 76% 30.17 in 10.0 mi NNW 6.9 mph - N/A   Overcast
5:20 AM 41.0 °F 37.1 °F 33.8 °F 76% 30.17 in 10.0 mi NNW 5.8 mph - N/A   Overcast
5:37 AM 42.8 °F 36.6 °F 33.8 °F 70% 30.17 in 10.0 mi NW 11.5 mph - N/A   Overcast
5:55 AM 41.0 °F 36.4 °F 33.8 °F 76% 30.17 in 10.0 mi NW 6.9 mph - N/A   Overcast
6:15 AM 41.0 °F 37.1 °F 33.8 °F 76% 30.17 in 10.0 mi NW 5.8 mph - N/A   Overcast
6:16 AM 41.0 °F 36.4 °F 33.8 °F 76% 30.17 in 10.0 mi NW 6.9 mph - N/A   Overcast
6:35 AM 41.0 °F 37.1 °F 33.8 °F 76% 30.16 in 10.0 mi NW 5.8 mph - N/A   Overcast
6:36 AM 41.0 °F 37.1 °F 33.8 °F 76% 30.16 in 10.0 mi NW 5.8 mph - N/A   Overcast
6:58 AM 41.0 °F 37.1 °F 33.8 °F 76% 30.17 in 10.0 mi NW 5.8 mph - N/A   Overcast
7:17 AM 41.0 °F 37.1 °F 35.6 °F 81% 30.16 in 10.0 mi NW 5.8 mph - N/A   Overcast
7:36 AM 41.0 °F 38.0 °F 35.6 °F 81% 30.16 in 10.0 mi NW 4.6 mph - N/A   Overcast
7:55 AM 41.0 °F 37.1 °F 35.6 °F 81% 30.16 in 10.0 mi NW 5.8 mph - N/A   Overcast
7:56 AM 41.0 °F 38.0 °F 35.6 °F 81% 30.16 in 10.0 mi NW 4.6 mph - N/A   Overcast
8:15 AM 41.0 °F 38.0 °F 35.6 °F 81% 30.16 in 10.0 mi WNW 4.6 mph - N/A   Overcast
8:37 AM 41.0 °F 36.4 °F 35.6 °F 81% 30.17 in 10.0 mi NW 6.9 mph - N/A   Overcast
8:55 AM 41.0 °F 36.4 °F 35.6 °F 81% 30.17 in 10.0 mi NW 6.9 mph - N/A   Overcast
9:15 AM 42.8 °F 38.6 °F 35.6 °F 76% 30.17 in 10.0 mi NW 6.9 mph - N/A   Overcast
9:35 AM 42.8 °F 40.1 °F 33.8 °F 70% 30.17 in 10.0 mi NW 4.6 mph - N/A   Overcast
9:36 AM 42.8 °F 39.3 °F 33.8 °F 70% 30.17 in 10.0 mi NW 5.8 mph - N/A   Overcast
9:59 AM 42.8 °F 38.6 °F 33.8 °F 70% 30.18 in 10.0 mi NNW 6.9 mph - N/A   Overcast
10:16 AM 42.8 °F 38.6 °F 33.8 °F 70% 30.17 in 10.0 mi West 6.9 mph - N/A   Overcast
10:35 AM 42.8 °F 39.3 °F 33.8 °F 70% 30.18 in 10.0 mi NNW 5.8 mph - N/A   Overcast
10:36 AM 42.8 °F 38.6 °F 33.8 °F 70% 30.18 in 10.0 mi NW 6.9 mph - N/A   Overcast
10:55 AM 44.6 °F 41.4 °F 33.8 °F 66% 30.18 in 10.0 mi WNW 5.8 mph - N/A   Overcast
11:18 AM 44.6 °F 43.1 °F 33.8 °F 66% 30.17 in 10.0 mi WNW 3.5 mph - N/A   Overcast
11:37 AM 44.6 °F 41.4 °F 33.8 °F 66% 30.16 in 10.0 mi West 5.8 mph - N/A   Overcast
11:56 AM 44.6 °F 41.4 °F 33.8 °F 66% 30.15 in 10.0 mi WSW 5.8 mph - N/A   Overcast
12:15 PM 44.6 °F 40.7 °F 33.8 °F 66% 30.16 in 10.0 mi West 6.9 mph - N/A   Overcast
12:16 PM 44.6 °F 41.4 °F 33.8 °F 66% 30.16 in 10.0 mi West 5.8 mph - N/A   Overcast
12:40 PM 46.4 °F 45.2 °F 33.8 °F 62% 30.16 in 10.0 mi West 3.5 mph - N/A   Overcast
12:57 PM 46.4 °F 45.2 °F 33.8 °F 62% 30.14 in 10.0 mi West 3.5 mph - N/A   Overcast
1:16 PM 46.4 °F 42.9 °F 33.8 °F 62% 30.14 in 10.0 mi West 6.9 mph - N/A   Overcast
1:35 PM 46.4 °F 42.4 °F 33.8 °F 62% 30.13 in 10.0 mi West 8.1 mph - N/A   Overcast
1:55 PM 46.4 °F - 33.8 °F 62% 30.12 in 10.0 mi Calm Calm - N/A   Mostly Cloudy
1:56 PM 46.4 °F 45.2 °F 33.8 °F 62% 30.12 in 10.0 mi WSW 3.5 mph - N/A   Overcast
2:19 PM 46.4 °F 44.3 °F 33.8 °F 62% 30.11 in 10.0 mi SW 4.6 mph - N/A   Overcast
2:36 PM 46.4 °F 43.5 °F 33.8 °F 62% 30.10 in 10.0 mi West 5.8 mph - N/A   Overcast
2:56 PM 48.2 °F - 33.8 °F 58% 30.09 in 10.0 mi West 3.5 mph - N/A   Overcast
3:15 PM 48.2 °F - 33.8 °F 58% 30.08 in 10.0 mi WSW 4.6 mph - N/A   Overcast
3:16 PM 48.2 °F - 33.8 °F 58% 30.08 in 10.0 mi WSW 3.5 mph - N/A   Overcast
3:35 PM 48.2 °F - 33.8 °F 58% 30.08 in 10.0 mi Calm Calm - N/A   Overcast
3:39 PM 48.2 °F - 33.8 °F 58% 30.08 in 10.0 mi Calm Calm - N/A   Overcast
3:58 PM 48.2 °F - 35.6 °F 62% 30.07 in 10.0 mi Calm Calm - N/A   Mostly Cloudy
4:15 PM 48.2 °F - 33.8 °F 58% 30.07 in 10.0 mi Calm Calm - N/A   Scattered Clouds
4:35 PM 48.2 °F - 33.8 °F 58% 30.07 in 10.0 mi Calm Calm - N/A   Clear
4:36 PM 48.2 °F - 33.8 °F 58% 30.07 in 10.0 mi SW 3.5 mph - N/A   Clear
4:55 PM 48.2 °F - 35.6 °F 62% 30.06 in 10.0 mi Calm Calm - N/A   Clear
5:18 PM 48.2 °F - 33.8 °F 58% 30.06 in 10.0 mi Calm Calm - N/A   Clear
5:36 PM 48.2 °F - 33.8 °F 58% 30.05 in 10.0 mi Calm Calm - N/A   Clear
5:55 PM 48.2 °F - 35.6 °F 62% 30.04 in 10.0 mi Calm Calm - N/A   Clear
5:56 PM 48.2 °F - 35.6 °F 62% 30.04 in 10.0 mi Calm Calm - N/A   Clear
6:15 PM 46.4 °F - 35.6 °F 66% 30.03 in 10.0 mi Calm Calm - N/A   Clear
6:16 PM 46.4 °F - 35.6 °F 66% 30.03 in 10.0 mi Calm Calm - N/A   Clear
6:35 PM 46.4 °F - 35.6 °F 66% 30.03 in 10.0 mi Calm Calm - N/A   Scattered Clouds
6:57 PM 44.6 °F 43.1 °F 35.6 °F 71% 30.03 in 10.0 mi SSE 3.5 mph - N/A   Scattered Clouds
7:15 PM 44.6 °F - 35.6 °F 71% 30.03 in 10.0 mi Calm Calm - N/A   Clear
7:35 PM 42.8 °F - 35.6 °F 76% 30.03 in 10.0 mi Calm Calm - N/A   Clear
7:55 PM 42.8 °F - 35.6 °F 76% 30.04 in 10.0 mi Calm Calm - N/A   Clear
7:56 PM 42.8 °F 41.1 °F 35.6 °F 76% 30.04 in 10.0 mi SSE 3.5 mph - N/A   Clear
8:19 PM 41.0 °F - 35.6 °F 81% 30.03 in 10.0 mi Calm Calm - N/A   Clear
8:37 PM 39.2 °F 37.0 °F 35.6 °F 87% 30.02 in 10.0 mi South 3.5 mph - N/A   Clear
8:56 PM 39.2 °F 37.0 °F 33.8 °F 81% 30.02 in 10.0 mi SSE 3.5 mph - N/A   Clear
9:15 PM 39.2 °F 35.9 °F 35.6 °F 87% 30.02 in 10.0 mi SSE 4.6 mph - N/A   Clear
9:35 PM 39.2 °F 35.9 °F 35.6 °F 87% 30.03 in 10.0 mi SSE 4.6 mph - N/A   Clear
9:39 PM 37.4 °F 33.8 °F 33.8 °F 87% 30.03 in 10.0 mi SE 4.6 mph - N/A   Clear
9:58 PM 37.4 °F 32.8 °F 33.8 °F 87% 30.02 in 10.0 mi SE 5.8 mph - N/A   Clear
10:15 PM 37.4 °F 32.8 °F 33.8 °F 87% 30.02 in 10.0 mi SE 5.8 mph - N/A   Clear
10:35 PM 39.2 °F 35.9 °F 35.6 °F 87% 30.02 in 10.0 mi ESE 4.6 mph - N/A   Clear
10:36 PM 37.4 °F 33.8 °F 33.8 °F 87% 30.02 in 10.0 mi ESE 4.6 mph - N/A   Clear
10:55 PM 37.4 °F 33.8 °F 33.8 °F 87% 30.01 in 10.0 mi ESE 4.6 mph - N/A   Clear
10:56 PM 37.4 °F 33.8 °F 33.8 °F 87% 30.01 in 10.0 mi ESE 4.6 mph - N/A   Clear
11:19 PM 37.4 °F 34.9 °F 35.6 °F 93% 30.01 in 10.0 mi ESE 3.5 mph - N/A   Clear
11:36 PM 37.4 °F 33.8 °F 35.6 °F 93% 30.01 in 10.0 mi ESE 4.6 mph - N/A   Clear
11:55 PM 37.4 °F 34.9 °F 35.6 °F 93% 30.01 in 10.0 mi ESE 3.5 mph - N/A   Clear